COSMOS 2251 DEB, 40808

Orbit data source: Space-Track

COSMOS 2251 DEB, 40808 is space debris in LEO originally from a launch on Wed, 16 Jun 1993 UTC launched from the Plesetsk Missile And Space Complex (PKMTR). The debris from Iridium 33, an American commercial communications satellite, has been tracked extensively since its accidental collision with the defunct Russian satellite Cosmos 2251 in 2009. This event, occurring at high speed in low Earth orbit (LEO), generated thousands of pieces of space debris, significantly increasing the risk of further collisions. The Iridium 33 debris cloud has impacted space traffic management and orbital debris mitigation strategies, making it a subject of ongoing study in space situational awareness.

Loading next visibility...
COSMOS 2251 DEB details
Identifier
40808, 1993-036BWM
Orbit
LEO
Last TLE update22 hours ago
Origin
Flag of CISKVR (CIS)
ManufacturerUnknown
MissionSpacecraft
Bus & MotorUnknown
MassUnknown
Launch date (UTC)
1993-06-16 (31 years ago)
Launch vehicleUnknown
Launch site
Plesetsk Missile And Space Complex (PKMTR)
Object type
Payload
Rocket body
Debris
Shape & HBRUnknown
Radar Cross SectionSmall (<0.1 m²)

Expand to show TLE details & history

TLE from 22 hours ago
0 COSMOS 2251 DEB
1 40808U 93036BWM 24339.22671167  .00018313  00000-0  38874-2 0  9992
2 40808  74.0447 142.0505 0011439 280.1241 253.3681 14.59056104581547
Epoch: 2024-12-04T05:26Z
Definitive object data (Epoch: 2024-12-04T05:26:27.888Z)
Latitude6.30419°
Longitude165.10915°
Altitude700.59 km
Speed7.505 km/s
True Right ascension21h 21m 00s
True Declination6° 15' 59"
Sunlit
Object was in daylight at TLE epoch
Visualization TLE readout
Latitude18.31479°
Longitude-9.46076°
Altitude699.738 km
Speed7.507 km/s
Apparent Right ascension11h 22m 23s
Apparent Declination-10° 26' 19"
Sunlit
Object is in daylight
Visualization observer readout
Local Sidereal Time01:43:38
Azimuth56.521° ENE
Elevation-47.034°
Doppler factor1
Orbital elements
Apogee altitude701.911 km
Perigee altitude685.732 km
Semi-major axis7,071.958 km
Eccentricity0.0011439
Inclination74.0447°
RAAN142.0505°
Arg. of periapsis280.1241°
True anomaly253.24255°
Mean anomaly253.3681°
Eccentric anomaly253.30532°
Mean motion3.6495 °/min
BSTAR0.0038874
Orbital period98.64 mins
Loading maneuver chart data...

COSMOS 2251 DEB Visibility forecast

Observer location: undefined°, undefined

Span
Click to sort rows by Start time (UTC) header in descending order
Start Az.
Max El. time (UTC)
Max El. Az.
Max El.
End time (UTC)
End Az.
9 mins2024-12-05 12:01:20.803Z190.774° SSW2024-12-05 12:06:20.803Z79.734° E43.614°2024-12-05 12:10:20.803Z23.31° NE
8 mins2024-12-05 22:21:20.803Z338.05° N2024-12-05 22:25:20.803Z224.105° SW44.431°2024-12-05 22:29:20.803Z167.178° S
|